Regional Weather Roundup
Issued by NWS Cleveland, OH

Home | Current Version | Previous Version | Graphics & Text | Print | Product List | Glossary On
Versions: 1 2 3 4 5 6 7 8 9 10 11 12 13 14 15 16 17 18 19 20 21 22 23 24 25 26 27 28 29 30 31 32 33 34 35 36 37 38 39 40 41 42 43 44 45 46 47 48 49 50
000
ASUS41 KCLE 220710
RWRCLE
OHIO REGIONAL WEATHER ROUNDUP
NATIONAL WEATHER SERVICE WILMINGTON, OH
200 AM EST WED FEB 22 2017

NOTE: "FAIR" INDICATES FEW OR NO CLOUDS BELOW 12,000 FEET WITH NO
SIGNIFICANT WEATHER AND/OR OBSTRUCTIONS TO VISIBILITY.

OHZ001>008-015>018-024>027-034-035-043-044-220800-
   NORTHWEST OHIO

CITY           SKY/WX    TMP DP  RH WIND       PRES   REMARKS
DEFIANCE       CLOUDY    52  48  86 S7        29.90F
FINDLAY        CLOUDY    52  46  80 CALM      29.90F
TOLEDO EXPRESS FAIR      49  49 100 S5        29.88F
TOLEDO EXEC    MOCLDY    49  47  93 S8        29.89F
LIMA           LGT RAIN  55  54  96 S9        29.91F FOG
$$

OHZ009>014-019>023-028>033-038-089-220800-
   NORTHEAST OHIO

CITY           SKY/WX    TMP DP  RH WIND       PRES   REMARKS
CLE-HOPKINS    CLOUDY    56  47  71 S8        29.94F
CLE-LAKEFRONT  CLOUDY    56  47  71 S8        29.90F
CUY CO. ARPT   NOT AVBL
LORAIN-ELYRIA  FAIR      49  44  83 S7        29.92F
ASHTABULA      MOCLDY    49  44  83 CALM      29.92F
AKRON-CANTON   MOCLDY    57  46  66 W7        29.94S
WOOSTER        FAIR      50  45  83 SW3       29.94F
MANSFIELD      FAIR      54  50  86 SW7       29.93F
YOUNGSTOWN     MOCLDY    54  44  69 S6        29.94F
$$

OHZ042-051>053-060>062-070>072-077>081-220800-
  SOUTHWEST OHIO

CITY           SKY/WX    TMP DP  RH WIND       PRES   REMARKS
CINC-COVINGTON CLOUDY    55  55 100 S6        29.94F FOG
CINC-LUNKEN    FOG       54  54 100 CALM      29.95S VSB 3/4
HAMILTON       LGT RAIN  52  52 100 CALM      29.95S VSB 3/4
DAYTON         CLOUDY    55  53  93 S8        29.94F
WRIGHT-PAT AFB CLOUDY    53  53 100 CALM      29.93S
DAYTON GENERAL CLOUDY    54  53  97 S5        29.93F FOG
WILMINGTON     CLOUDY    52  51  97 SW6       29.94S FOG
$$

OHZ036-037-039>041-045>050-054>059-063>069-073>076-082>088-220800-
  CENTRAL AND SOUTHEAST OHIO

CITY           SKY/WX    TMP DP  RH WIND       PRES   REMARKS
COLUMBUS       CLOUDY    55  53  93 SE3       29.93F
OSU AIRPORT    CLOUDY    55  54  96 S5        29.92F
BOLTON FIELD   CLOUDY    52  51  95 SW5       29.94S
RICKENBACK AFB CLOUDY    51  51 100 S3        29.93F
NEWARK         CLOUDY    54  50  86 S3        29.93F
MARION         CLOUDY    52  49  89 S5        29.93F
LANCASTER      CLOUDY    53  51  93 CALM      29.94F FOG
ZANESVILLE     CLOUDY    53  51  93 SE3       29.93F
NEW PHILLY     FAIR      51  47  86 E3        29.94F
$$



USA.gov is the U.S. government's official web portal to all federal, state and local government web resources and services.